Regional Weather Roundup
Issued by NWS Cleveland, OH

Home | Current Version | Previous Version | Graphics & Text | Print | Product List | Glossary On
Versions: 1 2 3 4 5 6 7 8 9 10 11 12 13 14 15 16 17 18 19 20 21 22 23 24 25 26 27 28 29 30 31 32 33 34 35 36 37 38 39 40 41 42 43 44 45 46 47 48 49 50
000
ASUS41 KCLE 291702
RWRCLE
OHIO REGIONAL WEATHER ROUNDUP
NATIONAL WEATHER SERVICE CLEVELAND, OH
100 PM EDT FRI AUG 29 2014

NOTE: "FAIR" INDICATES FEW OR NO CLOUDS BELOW 12,000 FEET WITH NO
SIGNIFICANT WEATHER AND/OR OBSTRUCTIONS TO VISIBILITY.

OHZ001>008-015>018-024>027-034-035-043-044-291800-
   NORTHWEST OHIO

CITY           SKY/WX    TMP DP  RH WIND       PRES   REMARKS
DEFIANCE       MOSUNNY   78  60  53 S8        30.09F
FINDLAY        MOSUNNY   78  59  51 S13       30.10F
TOLEDO EXPRESS CLOUDY    77  59  53 SE6       30.10F
TOLEDO EXEC    PTSUNNY   76  58  53 SE6       30.11F
LIMA           MOSUNNY   78  62  57 S12       30.11F
$$

OHZ009>014-019>023-028>033-038-089-291800-
   NORTHEAST OHIO

CITY           SKY/WX    TMP DP  RH WIND       PRES   REMARKS
CLE-HOPKINS    MOSUNNY   71  53  52 S8        30.15F
CLE-LAKEFRONT  PTSUNNY   75  51  43 SE8       30.12F
CUY CO. ARPT   MOSUNNY   73  55  53 SE9       30.15F
LORAIN-ELYRIA  MOSUNNY   76  56  49 S8        30.14F
ASHTABULA      SUNNY     71  50  47 SE8       30.16F
AKRON-CANTON   MOSUNNY   74  49  41 SE8       30.15F
WOOSTER        MOSUNNY   74  55  51 SE5       30.16S
MANSFIELD      SUNNY     75  56  51 SE6       30.14F
YOUNGSTOWN     MOSUNNY   71  52  50 SE9       30.16F
$$

OHZ042-051>053-060>062-070>072-077>081-291800-
  SOUTHWEST OHIO

CITY           SKY/WX    TMP DP  RH WIND       PRES   REMARKS
CINC-COVINGTON MOSUNNY   84  63  49 SE10      30.08F
CINC-LUNKEN    SUNNY     84  63  49 S9        30.08F
HAMILTON       MOSUNNY   83  65  54 E8        30.09F
DAYTON         MOSUNNY   80  62  54 SE9       30.12F
WRIGHT-PAT AFB SUNNY     79  63  58 VRB6      30.11F
DAYTON GENERAL SUNNY     79  64  60 SE7       30.10F
WILMINGTON     SUNNY     77  63  61 SE8       30.11F
$$

OHZ036-037-039>041-045>050-054>059-063>069-073>076-082>088-291800-
  CENTRAL AND SOUTHEAST OHIO

CITY           SKY/WX    TMP DP  RH WIND       PRES   REMARKS
COLUMBUS       MOSUNNY   80  55  42 VRB6      30.12F
OSU AIRPORT    MOSUNNY   77  55  46 SE7       30.12F
BOLTON FIELD   SUNNY     77  61  57 SE7       30.13F
RICKENBACK AFB MOSUNNY   80  52  37 S3        30.12F
NEWARK         SUNNY     76  57  51 VRB3      30.13F
MARION         MOSUNNY   76  57  51 S13       30.13F
LANCASTER      MOSUNNY   79  58  48 VRB3      30.13F
ZANESVILLE     SUNNY     76  55  48 SE5       30.14F
NEW PHILLY     SUNNY     74  57  55 SW5       30.15F
$$


USA.gov is the U.S. government's official web portal to all federal, state and local government web resources and services.